[[{"header":{"parameterUnit":"m.s-1","parameterCategory":1,"la1":30.2992,"la2":30.254,"lo1":-89.0895,"lo2":-89.0443,"dy":0.0025,"dx":0.0025,"nx":19,"ny":19,"refTime":"2026-04-23T03:00:00:Z","depth":0,"parameterNumber":2,"parameterNumberName":"U-component_of_WINDS"},"data":[0,0,0,-1.4801,-1.4802,-1.4858,-1.4859,-1.4924,-1.4925,0,0,0,0,0,0,0,0,0,0,0,-1.4781,-1.4781,-1.4801,-1.4802,-1.4858,-1.4859,-1.4924,-1.4925,0,0,0,0,0,0,0,0,0,0,0,-1.478,-1.4781,-1.4781,-1.4802,-1.4858,-1.4859,-1.4924,-1.4884,0,0,0,0,0,0,0,0,0,0,-1.4831,-1.4808,-1.4781,-1.4781,-1.4803,-1.4858,-1.4859,-1.4882,-1.4887,-1.4896,0,-1.4904,0,-1.4915,-1.4929,-1.4929,0,0,0,-1.4805,-1.4804,-1.4823,-1.4781,-1.4803,-1.4858,-1.4834,-1.4885,-1.489,-1.4902,-1.4905,-1.4907,-1.4916,-1.4929,-1.493,-1.4974,-1.4974,0,0,-1.4802,-1.4789,-1.4819,-1.4826,-1.4816,-1.4832,-1.4836,-1.4888,-1.489,-1.4905,-1.4909,-1.4917,-1.493,-1.493,-1.4974,-1.4974,0,0,0,-1.4791,-1.4786,-1.4804,-1.4823,-1.4833,-1.4834,-1.4838,-1.4888,-1.4894,-1.491,-1.4918,-1.493,-1.4931,-1.4974,-1.4974,-1.4964,0,0,0,-1.479,-1.478,-1.4802,-1.4795,-1.4832,-1.4861,-1.4836,-1.4891,-1.4897,-1.4918,-1.493,-1.4931,-1.4974,-1.4974,-1.4964,-1.4962,0,0,0,-1.4778,-1.4779,-1.4786,-1.4794,-1.4817,-1.4861,-1.4871,-1.4892,-1.4902,-1.4929,-1.4931,-1.4974,-1.4974,-1.4964,-1.4962,-1.497,0,0,0,-1.4763,-1.4776,-1.4785,-1.4804,-1.4817,-1.4854,-1.487,-1.4899,-1.4921,-1.493,-1.4974,-1.4974,-1.4964,-1.4962,-1.497,-1.4974,-1.4974,0,0,-1.4773,-1.4777,-1.4789,-1.4799,-1.483,-1.4846,-1.4877,-1.491,-1.4925,-1.4957,-1.4958,-1.4964,-1.4962,-1.497,-1.4979,-1.4979,0,0,0,-1.4788,-1.4796,-1.4808,-1.4827,-1.4852,-1.4874,-1.4903,-1.4916,-1.4943,-1.4938,-1.4969,-1.4968,-1.4973,-1.4976,-1.4976,-1.4981,-1.4975,-1.4975,-1.4974,-1.4784,-1.4801,-1.4822,-1.4846,-1.4865,-1.4895,-1.4912,-1.4934,-1.4947,-1.4954,-1.4964,-1.4967,-1.497,-1.497,-1.4975,-1.4967,-1.4967,-1.4967,-1.4967,-1.48,-1.4815,-1.4831,-1.4857,-1.4875,-1.4898,-1.4926,-1.4935,-1.4958,-1.4961,-1.4967,-1.4969,-1.4969,-1.4975,-1.4966,-1.4966,-1.4966,-1.4966,-1.4966,-1.48,-1.481,-1.4824,-1.4853,-1.4874,-1.4898,-1.492,-1.4936,-1.4952,-1.4957,-1.4969,-1.4969,-1.4971,-1.4961,-1.4961,-1.4961,-1.4961,-1.4961,-1.4961,-1.4795,-1.481,-1.4826,-1.4853,-1.4867,-1.4888,-1.4917,-1.4932,-1.4952,-1.4962,-1.4962,-1.4975,-1.4966,-1.4963,-1.4961,-1.4961,-1.4961,-1.4961,-1.4961,-1.4806,-1.4806,-1.483,-1.4844,-1.4876,-1.4896,-1.4915,-1.4944,-1.4958,-1.4968,-1.4979,-1.4969,-1.4975,-1.4976,-1.4974,-1.4975,-1.4975,-1.4975,-1.4975,-1.4806,-1.481,-1.4839,-1.486,-1.4883,-1.4903,-1.493,-1.4952,-1.4975,-1.4985,-1.4987,-1.4986,-1.4985,-1.4992,-1.4991,-1.499,-1.4995,-1.4995,-1.4995,-1.4815,-1.4821,-1.4841,-1.4863,-1.4889,-1.4911,-1.4936,-1.496,-1.4987,-1.4996,-1.4993,-1.4992,-1.499,-1.4989,-1.4999,-1.4999,-1.4996,0,0]},{"header":{"parameterUnit":"m.s-1","parameterCategory":1,"la1":30.2992,"la2":30.254,"lo1":-89.0895,"lo2":-89.0443,"dy":0.0025,"dx":0.0025,"nx":19,"ny":19,"refTime":"2026-04-23T03:00:00:Z","depth":0,"parameterNumber":3,"parameterNumberName":"V-component_of_WINDS"},"data":[0,0,0,3.8938,3.894,3.9012,3.9012,3.9109,3.911,0,0,0,0,0,0,0,0,0,0,0,3.8921,3.8921,3.8938,3.894,3.9012,3.9012,3.9109,3.911,0,0,0,0,0,0,0,0,0,0,0,3.892,3.8921,3.8922,3.894,3.9012,3.9012,3.9109,3.9052,0,0,0,0,0,0,0,0,0,0,3.8981,3.8969,3.8921,3.8922,3.894,3.9012,3.9013,3.9049,3.9056,3.9079,0,3.9101,0,3.9108,3.9117,3.9117,0,0,0,3.8936,3.8964,3.898,3.8922,3.8941,3.9012,3.8978,3.9053,3.906,3.9087,3.9103,3.9106,3.9109,3.9118,3.9118,3.9265,3.9266,0,0,3.8932,3.8935,3.8975,3.8985,3.8976,3.8976,3.8981,3.9057,3.9074,3.9103,3.9108,3.9111,3.9118,3.9119,3.9265,3.9266,0,0,0,3.8923,3.8933,3.8947,3.8981,3.8994,3.8978,3.8984,3.907,3.9075,3.9109,3.9112,3.9119,3.912,3.9264,3.9265,3.9311,0,0,0,3.892,3.8927,3.8945,3.8948,3.8993,3.9034,3.8995,3.907,3.9078,3.9111,3.9119,3.9121,3.9263,3.9264,3.9307,3.9331,0,0,0,3.8914,3.8927,3.8939,3.8948,3.8979,3.9032,3.9041,3.9071,3.908,3.9117,3.9121,3.9262,3.9264,3.9304,3.9327,3.9371,0,0,0,3.8908,3.8978,3.894,3.9018,3.8979,3.9061,3.904,3.9101,3.9139,3.9119,3.9263,3.9265,3.9304,3.9324,3.9368,3.9409,3.9427,0,0,3.8998,3.8989,3.9034,3.9002,3.9092,3.9049,3.9145,3.9176,3.9175,3.9235,3.9238,3.9308,3.9326,3.937,3.9524,3.9538,0,0,0,3.9064,3.9097,3.912,3.9157,3.9183,3.9207,3.9223,3.9234,3.9285,3.9207,3.9337,3.9347,3.9373,3.9392,3.9404,3.9426,3.9274,3.9274,3.9274,3.9194,3.9192,3.9267,3.9273,3.9309,3.9325,3.9353,3.9371,3.9357,3.9387,3.9405,3.9499,3.9522,3.953,3.9553,3.9426,3.9427,3.9427,3.9427,3.9325,3.9371,3.9351,3.9418,3.9414,3.9468,3.9486,3.9474,3.9524,3.9485,3.9508,3.9465,3.9546,3.9565,3.943,3.943,3.9429,3.9429,3.9429,3.941,3.9431,3.9445,3.9498,3.9539,3.9542,3.9591,3.9585,3.958,3.9602,3.9619,3.9619,3.9617,3.9611,3.9611,3.9611,3.9612,3.9612,3.9612,3.9492,3.9506,3.9549,3.9583,3.9606,3.9635,3.9652,3.9673,3.9696,3.9687,3.9688,3.967,3.9555,3.9526,3.9617,3.9616,3.9616,3.9615,3.9615,3.9625,3.9594,3.9661,3.9684,3.9722,3.9763,3.9755,3.98,3.9817,3.9841,3.9819,3.9735,3.9725,3.9715,3.9691,3.982,3.982,3.982,3.982,3.9697,3.9691,3.9758,3.9795,3.983,3.983,3.9903,3.9917,3.9925,3.9935,3.9916,3.9883,3.9874,3.9869,3.9857,3.9834,3.9996,3.9996,3.9996,3.9778,3.9776,3.984,3.985,3.988,3.9905,3.9973,4.0015,4.0018,4.0003,3.9943,3.9935,3.9883,3.9866,3.985,3.983,3.9788,0,0]}]]